Simultaneous Nadir Overpasses (SNOs) Predictions

Prediction of SNOs between GOES-15 and METOP-B Satellite Orbit:

Table of predicted SNOs for the next 14.0 days since TLE Epoch: 9/10/2022
Index Date Time (GOES-15) GOES-15 Lat,Lon METOP-B Lat,Lon Distance(km) Time Diff (sec)
1 09/10/2022 17:59:53 -0.23,-127.75 -0.32,-127.23 58.85 80
2 09/12/2022 06:16:12 0.25,-127.65 -0.70,-131.82 476.50 80
3 09/13/2022 05:58:12 0.24,-127.62 0.40,-126.82 90.31 80
4 09/14/2022 18:14:23 -0.26,-127.64 0.56,-131.39 427.05 80
5 09/15/2022 17:56:22 -0.24,-127.62 -0.54,-126.39 140.11 80
6 09/17/2022 06:12:41 0.26,-127.51 -0.54,-130.98 395.30 80
7 09/18/2022 05:54:40 0.24,-127.48 0.56,-125.98 170.82 80
8 09/19/2022 18:10:50 -0.26,-127.48 0.44,-130.53 348.24 80
9 09/20/2022 17:52:50 -0.25,-127.45 -0.66,-125.54 218.25 80
10 09/22/2022 06:11:49 0.27,-127.35 -0.35,-130.13 317.14 80
11 09/23/2022 05:51:09 0.26,-127.31 0.75,-125.13 248.45 80
